Probability
0 0 0 0 0 0 0 0 0 0 0 0 0 0 0 0 0 0 0 0 0 0 0 0 0 0 0 0 0 0 0 0 0 0 0 0 0 0 0 0 0 0 0 0 0 0 0 0 0
0 0 0 0 0 0 0 0 0 0 0 0 0 0 0 0 0 0 0 0 0 0 0 0 0 0 0 0 0 0 0 0 0 0 0 0 0 0 0 0 0 0 0 0 0 0 0 0 0
0 0 0 0 0 0 0 0 0 0 0 0 0 0 0 0 0 0 0 0 0 0 0 0 0 0 0 0 0 0 0 0 0 0 0 0 0 0 0 0 0 0 0 0 0 0 0 0 0
0 0 0 0 0 0 0 0 0 0 0 0 0 0 0 0 0 0 0 0 0 0 0 0 0 0 0 0 0 0 0 0 0 0 0 0 0 0 0 0 0 0 0 0 0 0 0 0 0
0 0 0 0 0 0 0 0 0 0 0 0 0 0 0 0 0 0 0 0 0 0 0 0 0 0 0 0 0 0 0 0 0 0 0 0 0 0 0 0 0 0 0 0 0 0 0 0 0
0 0 0 0 0 0 0 0 0 0 0 0 0 0 0 0 0 0 0 0 0 0 0 0 0 0 0 0 0 0 0 0 0 0 0 0 0 0 0 0 0 0 0 0 0 0 0 0 0
0 0 0 0 0 0 0 0 0 0 0 0 0 0 0 0 0 0 0 0 0 0 0 0 0 0 0 0 0 0 0 0 0 0 0 0 0 0 0 0 0 0 0 0 0 0 0 0 0
0 0 0 0 0 0 0 0 0 0 0 0 0 0 0 0 0 0 0 0 0 0 0 0 0 0 0 0 0 0 0 0 0 0 0 0 0 0 0 0 0 0 0 0 0 0 0 0 0
0 0 0 0 0 0 0 0 0 0 0 0 0 0 0 0 0 0 0 0 0 0 0 0 0 0 0 0 0 0 0 0 0 0 0 0 0 0 0 0 0 0 0 0 0 0 0 0 0
0 0 0 0 0 0 0 0 0 0 0 0 0 0 0 0 0 0 0 0 0 0 0 0 0 0 0 0 0 0 0 0 0 0 0 0 0 0 0 0 0 0 0 0 0 0 0 0 0
0 0 0 0 0 0 0 0 0 0 0 0 0 0 0 0 0 0 0 0 0 0 0 0 0 0 0 0 0 0 0 0 0 0 0 0 0 0 0 0 0 0 0 0 0 0 0 0 0
0 0 0 0 0 0 0 0 0 0 0 0 0 0 0 0 0 0 0 0 0 0 0 0 0 0 0 0 0 0 0 0 0 0 0 0 0 0 0 0 0 0 0 0 0 0 0 0 0
0 0 0 0 0 0 0 0 0 0 0 0 0 0 0 0 0 0 0 0 0 0 0 0 0 0 0 0 0 0 0 0 0 0 0 0 0 0 0 0 0 0 0 0 0 0 0 0 0
0 0 0 0 0 0 0 0 0 0 0 0 0 0 0 0 0 0 0 0 0 0 0 0 0 0 1 1 1 1 1 0 0 0 0 0 0 0 0 0 0 0 0 0 0 0 0 0 0
0 0 0 0 0 0 0 0 0 0 0 0 0 0 0 0 0 0 0 0 0 0 0 0 0 1 2 2 2 2 2 1 0 0 0 0 0 0 0 0 0 0 0 0 0 0 0 0 0
0 0 0 0 0 0 0 0 0 0 0 0 0 0 0 0 0 0 0 0 0 0 0 0 0 1 2 3 3 3 3 2 1 0 0 0 0 0 0 0 0 0 0 0 0 0 0 0 0
0 0 0 0 0 0 0 0 0 0 0 0 0 0 0 0 0 0 0 0 0 0 0 0 0 1 2 3 3 3 3 3 2 1 0 0 0 0 0 0 0 0 0 0 0 0 0 0 0
0 0 0 0 0 0 0 0 0 0 0 0 0 0 0 0 0 0 0 0 0 0 0 0 0 1 2 3 3 3 3 3 3 2 1 1 0 0 0 0 0 0 0 0 0 0 0 0 0
0 0 0 0 0 0 0 0 0 0 0 0 0 0 0 0 0 0 0 0 0 0 0 0 0 0 1 3 3 3 3 3 3 3 3 2 1 0 0 0 0 0 0 0 0 0 0 0 0
0 0 0 0 0 0 0 0 0 0 0 0 0 0 0 0 0 0 0 0 0 0 0 0 0 0 1 2 3 3 3 3 3 3 3 3 1 0 0 0 0 0 0 0 0 0 0 0 0
0 0 0 0 0 0 0 0 0 0 0 0 0 0 0 0 0 0 0 0 0 0 0 0 0 0 1 2 3 3 3 3 3 3 3 3 2 1 0 0 0 0 0 0 0 0 0 0 0
0 0 0 0 0 0 0 0 0 0 0 0 0 0 0 0 0 0 0 0 0 0 0 0 0 0 0 1 2 3 3 3 3 3 3 3 3 2 1 0 0 0 0 0 0 0 0 0 0
0 0 0 0 0 0 0 0 0 0 0 0 0 0 0 0 0 0 0 0 0 0 0 0 0 0 0 0 1 2 2 3 3 3 3 3 3 3 2 1 0 0 0 0 0 0 0 0 0
0 0 0 0 0 0 0 0 0 0 0 0 0 0 0 0 0 0 0 0 0 0 0 0 0 0 0 0 0 1 1 1 2 3 3 3 3 3 2 1 0 0 0 0 0 0 0 0 0
0 0 0 0 0 0 0 0 0 0 0 0 0 0 0 0 0 0 0 0 0 0 0 0 0 0 1 1 0 0 0 0 1 1 2 3 3 3 3 1 0 0 0 0 0 0 0 0 0
0 0 0 0 0 0 0 0 0 0 0 0 0 0 0 0 0 0 0 0 0 0 0 0 0 0 1 1 1 1 0 0 0 0 1 2 3 3 3 2 1 0 0 0 0 0 0 0 0
0 0 0 0 0 0 0 0 0 0 0 0 0 0 0 0 0 0 0 0 0 0 0 0 0 0 1 1 2 2 1 1 0 0 0 1 2 3 3 2 1 0 0 0 0 0 0 0 0
0 0 0 0 0 0 0 0 0 0 0 0 0 0 0 0 0 0 0 0 0 0 0 0 0 0 0 0 1 2 2 2 1 1 0 0 1 3 3 3 1 0 0 0 0 0 0 0 0
0 0 0 0 0 0 0 0 0 0 0 0 0 0 0 0 0 0 0 0 0 0 0 0 0 0 0 0 0 1 2 2 2 2 1 0 1 2 3 3 2 1 0 0 0 0 0 0 0
0 0 0 0 0 0 0 0 0 0 0 0 0 0 0 0 0 0 0 0 0 0 0 0 0 0 0 0 0 0 1 1 2 2 1 0 0 1 3 3 3 2 1 1 1 0 0 0 0
Wind_Speed
15 10 2 4 7 6 1 1 2 2 2 1 3 8 7 4 2 3 2 9 12 10 8 9 11 13 13 13 13 13 13 13 13 12 13 13 13 13 14 13 13 13 13 13 13 13 13 12 12
9 5 5 6 6 3 2 1 3 2 3 3 5 6 6 3 2 6 5 9 13 11 9 9 11 13 13 13 13 12 12 12 12 12 12 12 12 13 13 13 12 12 12 12 12 12 11 11 10
8 3 5 5 3 3 2 2 4 2 2 3 4 4 5 4 4 5 7 12 11 9 8 9 11 13 13 13 13 13 12 12 12 12 11 12 12 12 12 12 12 11 11 11 11 11 10 9 9
4 5 5 5 1 2 5 5 5 4 2 3 5 4 2 1 5 6 11 12 11 9 8 9 12 13 13 13 13 13 12 12 11 11 11 11 11 11 11 11 11 11 10 10 10 9 8 7 7
4 5 5 3 2 2 2 5 5 5 3 3 5 4 1 3 4 11 12 12 12 8 7 9 11 11 12 12 13 12 12 12 11 11 10 10 10 11 11 10 10 10 9 9 9 8 7 6 6
5 5 4 1 4 2 2 3 4 4 3 3 6 5 1 1 6 9 10 10 11 10 8 8 11 11 11 11 11 11 11 11 11 10 10 10 10 10 10 10 10 9 9 8 8 6 5 4 4
4 3 2 2 3 3 3 2 5 4 3 3 7 6 3 3 5 7 8 9 9 9 8 7 7 8 10 10 10 10 10 10 10 10 9 8 7 8 8 8 9 9 8 8 7 5 4 3 2
4 4 1 2 2 3 3 1 2 5 3 2 5 9 7 7 6 7 7 7 8 8 8 7 6 6 6 7 10 10 10 9 9 9 8 8 7 7 7 6 7 8 8 7 6 5 4 2 0
3 4 3 3 2 3 2 1 1 2 4 3 3 4 6 10 9 8 6 5 7 7 7 7 7 6 6 6 8 9 10 10 9 8 9 7 4 4 4 5 6 6 7 7 7 6 4 2 2
4 4 7 4 2 2 2 0 1 2 3 2 3 3 5 9 10 10 8 9 10 10 8 7 8 8 7 6 5 5 5 6 6 5 6 4 4 4 4 6 7 7 7 7 7 6 4 2 2
5 7 5 3 2 1 1 1 0 4 2 4 6 7 8 8 9 10 9 9 9 9 9 8 9 8 8 5 5 4 3 4 5 6 6 4 4 3 3 2 3 4 5 4 4 4 2 2 2
4 5 4 3 1 1 1 1 1 3 5 5 7 12 12 12 13 13 12 10 8 8 9 9 9 8 9 7 6 6 5 4 4 6 7 5 3 4 4 3 4 3 3 3 3 3 4 4 5
5 4 4 3 3 2 2 2 3 5 6 2 6 10 12 13 12 10 9 8 8 9 10 10 9 10 9 8 6 7 6 6 6 6 6 6 5 5 5 4 4 4 4 4 4 4 5 5 5
5 4 3 3 3 3 3 4 3 7 3 2 6 10 12 13 13 10 10 11 11 12 11 10 10 10 9 8 7 7 7 6 6 6 8 9 6 6 6 5 5 5 5 5 5 5 5 5 4
3 2 4 4 4 3 2 6 7 8 3 4 7 8 10 12 11 13 14 14 14 12 11 11 11 10 10 10 9 7 7 7 7 7 8 9 8 7 7 6 6 6 6 6 5 5 4 4 5
3 4 6 5 5 5 5 11 9 7 5 8 8 8 9 11 12 13 13 13 12 11 11 12 10 10 11 10 8 6 6 7 7 6 7 10 10 9 7 6 6 6 5 5 5 5 4 5 5
5 7 7 5 6 6 8 9 8 7 7 9 9 9 9 9 10 12 12 13 13 13 12 12 12 12 12 10 8 7 6 7 6 6 7 8 10 10 8 7 6 6 6 6 6 5 4 5 5
8 7 7 9 5 7 9 11 9 6 7 9 9 8 8 10 13 11 12 12 12 12 12 12 12 12 10 8 6 5 6 7 6 7 8 9 9 10 9 7 7 7 6 6 6 6 5 4 4
7 8 8 7 5 7 11 13 13 10 7 9 9 9 9 11 11 9 9 10 9 9 11 12 13 12 9 7 7 8 9 7 6 7 8 10 10 10 10 8 7 8 8 9 8 6 6 6 3
8 8 7 4 4 5 8 13 11 11 10 10 11 11 11 11 8 8 8 8 10 11 12 12 13 12 12 10 8 5 5 5 6 6 8 10 10 11 10 10 8 8 8 8 9 8 5 4 5
14 12 9 5 2 3 4 10 11 10 9 10 10 10 10 12 12 10 9 10 10 11 12 12 13 13 12 11 5 3 3 3 5 7 9 10 11 11 11 11 10 9 9 9 10 10 10 8 6
17 10 8 7 4 5 6 9 9 9 10 12 12 11 12 12 12 10 9 9 11 12 11 12 12 11 10 10 9 11 10 11 11 8 7 8 10 11 12 11 11 10 10 11 10 10 9 9 8
6 8 9 8 7 7 6 8 9 6 11 12 12 12 13 12 12 11 10 10 10 9 8 9 9 9 9 10 11 11 11 11 6 6 7 8 8 11 12 12 11 11 11 11 10 10 11 10 10
6 5 5 5 6 16 15 10 11 9 12 9 10 12 13 11 10 9 8 6 5 4 5 5 6 7 8 9 10 12 13 11 8 8 9 8 7 8 11 12 12 12 11 12 12 11 12 11 11
9 8 7 9 11 13 9 11 13 9 10 12 12 13 12 9 8 7 5 4 4 3 3 4 4 5 5 7 8 10 11 11 12 10 10 9 8 8 10 11 12 12 12 12 11 11 12 13 13
16 14 10 9 8 5 7 13 10 8 10 10 11 10 7 7 6 5 5 4 3 3 2 2 3 2 2 3 5 6 8 7 7 9 8 8 8 8 8 10 12 13 12 12 11 11 12 11 12
12 13 8 3 2 3 7 7 9 6 7 9 8 6 6 6 5 4 2 2 2 2 2 2 2 1 0 1 2 3 4 6 7 6 7 7 7 6 7 9 10 11 12 12 12 11 12 11 12
9 10 7 9 8 9 7 7 8 6 10 9 8 7 5 3 3 2 2 2 2 2 2 2 2 1 1 1 2 2 3 4 5 5 5 6 7 6 6 8 9 9 10 11 12 11 11 12 11
10 11 9 7 7 8 7 9 8 10 10 10 9 7 5 4 3 3 2 2 3 3 3 3 3 2 3 3 2 3 3 3 4 4 5 6 6 6 7 7 7 8 9 9 10 11 10 12 12
10 12 12 10 9 7 6 9 4 6 7 7 7 4 3 3 3 3 3 3 4 4 4 4 4 4 4 3 3 3 4 4 4 5 5 5 6 6 6 6 7 7 8 8 10 11 11 12 12
Wind_Direction
323 323 8 50 50 50 39 326 146 114 82 89 82 91 97 90 114 149 130 139 135 140 143 140 138 136 134 132 129 126 123 120 118 117 115 113 111 108 105 103 101 100 99 99 97 95 93 91 87
319 335 37 53 74 61 326 308 113 125 160 134 84 92 87 79 96 117 126 145 139 140 143 142 138 139 139 138 135 132 128 125 124 123 121 118 116 114 113 111 109 108 106 104 102 99 97 93 85
327 25 63 63 83 158 180 211 152 144 134 101 78 73 110 146 143 148 153 145 136 138 140 143 143 145 144 143 141 137 135 133 131 129 127 125 122 120 118 117 117 114 111 109 106 103 100 94 82
9 26 47 65 28 228 177 196 172 133 83 79 99 75 66 128 173 152 142 142 136 139 142 148 147 149 149 149 147 144 142 141 138 136 134 131 128 127 126 123 122 119 117 115 112 108 104 93 76
45 58 46 21 300 277 185 186 169 139 149 119 108 107 64 341 124 132 140 142 140 142 146 153 151 153 154 154 153 151 149 147 145 144 141 137 136 133 132 130 127 124 122 121 119 115 108 92 70
41 57 74 306 288 291 236 193 149 133 158 132 112 115 146 173 128 139 141 143 145 148 151 154 155 156 158 159 157 157 155 153 152 151 148 146 145 143 140 140 137 135 132 131 128 126 118 101 68
89 87 163 240 272 281 246 173 139 142 151 162 129 119 156 198 172 145 139 142 145 150 152 154 158 161 164 164 161 159 158 157 156 156 153 149 148 147 143 144 147 147 145 142 140 138 135 121 67
123 104 194 254 245 264 269 115 124 136 161 136 120 145 184 200 175 138 130 140 148 155 160 162 164 162 164 166 167 164 161 159 157 154 150 148 147 144 143 148 155 158 156 156 156 156 162 173 322
90 94 207 225 225 267 296 50 34 122 108 65 67 166 191 152 145 136 135 145 162 168 172 170 170 170 168 169 173 169 166 165 160 158 159 155 150 149 151 163 168 167 163 168 174 180 189 211 278
112 170 216 216 208 242 287 212 168 96 89 80 44 33 115 140 154 164 172 175 179 183 184 180 179 178 175 178 170 171 171 170 168 167 169 167 167 174 174 182 182 175 171 179 189 196 202 220 277
171 194 219 247 256 235 266 295 228 136 183 197 185 172 156 162 173 184 190 188 189 186 187 188 186 184 181 179 173 178 174 174 179 179 180 177 175 180 181 177 184 180 178 183 198 204 212 228 242
202 226 214 233 255 197 218 249 259 192 214 220 190 168 169 179 189 195 198 199 191 191 195 191 188 186 187 183 182 183 182 184 188 192 188 181 181 185 185 186 187 185 183 190 201 210 223 235 243
220 241 243 236 251 231 225 237 243 247 251 241 151 162 183 192 200 207 206 204 198 201 201 196 190 189 187 184 188 189 191 192 193 194 196 190 188 190 189 193 193 196 193 195 205 218 228 235 240
213 223 252 249 240 237 226 253 242 252 235 182 167 185 198 203 206 206 208 210 209 209 207 200 196 192 187 189 191 192 194 195 194 197 199 196 195 193 191 195 198 202 202 202 205 213 221 229 230
198 231 280 252 216 221 208 265 235 242 231 221 217 213 212 215 211 211 211 211 210 209 205 204 202 195 192 194 196 194 195 194 199 201 201 200 199 196 194 197 202 205 203 204 210 218 221 228 231
170 197 235 242 201 205 182 248 251 243 222 236 234 231 227 227 221 220 216 214 211 206 204 205 202 199 199 198 197 197 196 198 203 201 201 204 203 199 197 201 207 202 198 201 207 210 216 226 229
192 207 214 234 212 192 197 239 250 235 216 235 239 233 232 236 236 228 220 215 211 207 205 203 201 201 202 201 199 199 199 204 204 203 206 207 207 203 202 208 208 198 202 206 211 210 206 219 228
189 192 199 208 219 197 217 239 251 243 219 231 239 241 238 237 237 230 223 218 214 209 205 204 202 203 199 197 198 202 211 213 209 209 210 207 208 206 207 212 208 200 206 213 213 215 213 216 219
174 185 204 212 214 203 228 240 245 246 238 240 242 242 243 242 242 236 227 219 213 208 205 205 204 203 193 193 199 206 217 216 215 216 213 211 210 207 209 214 210 208 214 217 212 211 219 225 198
206 208 212 238 231 214 243 251 248 241 233 231 234 237 240 245 252 244 232 218 211 210 208 206 207 203 200 204 202 200 200 211 216 217 220 218 215 212 214 217 216 212 218 219 214 208 215 217 185
218 215 205 210 270 261 268 272 250 248 238 240 237 236 237 236 240 240 231 223 215 214 211 209 209 207 205 202 187 181 186 211 215 220 223 221 219 217 218 219 219 216 217 224 220 213 216 224 209
225 207 194 201 207 242 211 264 254 235 243 239 241 243 243 242 239 238 231 226 219 219 214 212 210 208 204 195 194 196 206 218 222 221 223 219 216 219 219 221 220 221 222 227 223 217 219 220 224
203 172 193 206 215 244 226 249 264 219 235 237 236 239 242 241 237 235 231 226 223 219 212 212 209 208 202 197 201 205 218 227 227 217 222 223 220 221 222 221 221 224 226 228 225 219 219 220 226
166 149 191 207 215 240 225 226 260 212 219 228 233 237 239 240 238 236 234 224 221 213 205 204 204 211 204 201 204 209 219 224 224 223 225 226 226 225 223 222 224 226 226 227 227 224 222 225 227
172 168 198 209 218 237 191 213 249 215 211 215 226 236 237 235 233 233 227 217 212 200 198 196 196 213 209 204 210 216 222 224 227 229 230 228 229 229 226 221 225 228 229 228 225 225 227 227 228
194 188 197 205 212 234 181 222 248 223 222 225 229 233 235 233 224 220 216 206 194 177 169 169 177 202 206 207 220 225 228 229 235 235 233 231 233 234 229 222 225 227 227 228 227 228 229 229 231
182 204 201 179 178 221 226 254 287 242 237 239 239 234 231 225 214 208 199 176 157 143 146 158 155 171 241 249 251 248 241 238 243 245 240 240 240 238 231 227 228 229 228 227 226 229 229 228 230
182 165 167 199 206 227 235 231 235 222 222 225 223 219 219 202 178 149 117 96 90 95 87 83 100 144 274 295 277 276 265 259 258 256 256 253 249 243 239 234 232 232 230 228 227 231 231 230 231
177 183 189 192 196 204 230 246 221 212 208 207 209 204 193 177 157 132 105 81 68 54 50 48 39 24 3 343 327 324 313 299 286 274 268 264 261 252 246 242 238 236 234 231 230 232 230 231 234
190 194 189 202 210 205 221 253 241 209 209 192 190 185 174 150 131 116 103 80 65 54 46 43 32 20 0 352 355 349 339 334 323 307 298 291 279 267 257 251 246 243 240 236 233 235 232 233 235